Tracking 29892 objects as of 21-Nov-2024
HD Live streaming from Space Station
objects crossing your sky now

FENGYUN 1C DEB

Track FENGYUN 1C DEB now!
10-day predictions


NORAD ID: 30175
Int'l Code: 1999-025UG
Perigee: 851.2 km
Apogee: 1,067.1 km
Inclination: 99.4 °
Period: 104.1 minutes
Semi major axis: 7330 km
RCS: 0.0364 m2 (small)
Launch date: May 10, 1999
Source: People's Republic of China (PRC)
Launch site: Taiyaun Space Center, China (TSC)

Note: This is SATELLITE DEBRIS
Your satellite tracking list
Your tracking list is empty




NASA's NSSDC Master Catalog

Two Line Element Set (TLE):
1 30175U 99025UG  24325.12508013  .00000790  00000-0  69880-3 0  9997
2 30175  99.4317  15.0591 0147230 162.0157 217.6583 13.83356639899804
Source of the keplerian elements: AFSPC